EW7617 Weather Reports


Display with metric or nautical units.
time (UTC)temp
F
wind
direction
speed
MPH
gust
MPH
rain 1hr
in
rain 24hr
in
rain mn
in
humidity
%
barometer
mb
20260504184531 66 338 5.0 16.0 0.00 0.00 0.00 34 1000.9
20260504183026 66 352 11.0 20.0 0.00 0.00 0.00 31 1001.0
20260504181520 66 324 9.0 21.0 0.00 0.00 0.00 31 1000.8
20260504180022 66 341 7.0 15.0 0.00 0.00 0.00 31 1000.5
20260504174519 66 333 7.0 15.0 0.00 0.00 0.00 30 1000.2
20260504173017 67 295 5.0 14.0 0.00 0.00 0.00 33 1000.0
20260504171516 66 302 4.0 14.0 0.00 0.00 0.00 34 1000.1
20260504150103 62 224 5.0 14.0 0.00 0.00 0.00 50 998.5
20260504081505 51 160 0.0 2.0 0.00 0.00 0.00 57 999.7
20260504044530 53 195 0.0 2.0 0.00 0.00 0.00 48 1002.3
20260504043033 54 153 0.0 2.0 0.00 0.00 0.00 47 1002.6
20260504041529 55 160 0.0 2.0 0.00 0.00 0.00 46 1002.7
20260504040024 55 170 0.0 2.0 0.00 0.00 0.00 45 1003.0
20260504034523 56 177 1.0 2.0 0.00 0.00 0.00 44 1003.3
20260504033020 56 214 0.0 3.0 0.00 0.00 0.00 44 1003.6
20260504031519 57 199 0.0 2.0 0.00 0.00 0.00 43 1003.7
20260504030019 58 160 0.0 1.0 0.00 0.00 0.00 41 1003.8
20260504024518 59 156 0.0 2.0 0.00 0.00 0.00 39 1003.8
20260504023016 61 117 0.0 3.0 0.00 0.00 0.00 38 1003.8
20260504021515 62 180 1.0 2.0 0.00 0.00 0.00 37 1003.9
20260504020014 63 222 0.0 2.0 0.00 0.00 0.00 34 1004.0
20260504014514 64 216 0.0 2.0 0.00 0.00 0.00 33 1004.1
20260504013019 66 198 0.0 2.0 0.00 0.00 0.00 32 1004.1
20260504011512 67 293 0.0 5.0 0.00 0.00 0.00 30 1004.1
20260504010011 69 295 1.0 5.0 0.00 0.00 0.00 29 1004.1
20260504004528 70 272 2.0 5.0 0.00 0.00 0.00 27 1004.3
20260504003008 72 221 1.0 6.0 0.00 0.00 0.00 26 1004.3
20260504001523 72 290 2.0 7.0 0.00 0.00 0.00 26 1004.3
20260504000007 72 279 2.0 10.0 0.00 0.00 0.00 26 1004.3
20260503234504 72 248 3.0 12.0 0.00 0.00 0.00 25 1004.6
20260503233004 72 304 3.0 10.0 0.00 0.00 0.00 25 1004.7
20260503231502 72 304 4.0 10.0 0.00 0.00 0.00 25 1004.6
20260503230002 73 354 3.0 9.0 0.00 0.00 0.00 25 1004.7
20260503224607 73 304 4.0 12.0 0.00 0.00 0.00 25 1004.8
20260503223111 73 208 3.0 9.0 0.00 0.00 0.00 26 1004.9
20260503221554 72 300 7.0 12.0 0.00 0.00 0.00 25 1005.0
20260503220053 73 295 4.0 9.0 0.00 0.00 0.00 24 1005.1
20260503214556 72 323 4.0 10.0 0.00 0.00 0.00 22 1005.3
20260503213049 72 298 2.0 8.0 0.00 0.00 0.00 26 1005.3
20260503211546 72 314 7.0 16.0 0.00 0.00 0.00 26 1005.6
20260503210045 72 1 4.0 12.0 0.00 0.00 0.00 28 1005.8
20260503204544 72 328 2.0 12.0 0.00 0.00 0.00 27 1006.0
20260503203038 71 353 6.0 13.0 0.00 0.00 0.00 27 1006.1
20260503201538 71 343 5.0 13.0 0.00 0.00 0.00 29 1006.3
20260503200036 70 355 4.0 15.0 0.00 0.00 0.00 29 1006.6
20260503194540 70 352 5.0 11.0 0.00 0.00 0.00 29 1006.7
20260503193034 70 332 4.0 13.0 0.00 0.00 0.00 30 1006.8
20260503191533 69 50 4.0 13.0 0.00 0.00 0.00 29 1007.0
20260503190042 70 343 5.0 11.0 0.00 0.00 0.00 31 1007.1